Date,TemperatureHighF,TemperatureAvgF,TemperatureLowF,DewpointHighF,DewpointAvgF,DewpointLowF,HumidityHigh,HumidityAvg,HumidityLow,PressureMaxIn,PressureMinIn,WindSpeedMaxMPH,WindSpeedAvgMPH,GustSpeedMaxMPH,PrecipitationSumIn
2013-10-1,73,69,66,70,67,64,95,93,89,30.08,30.05,0,0,0,0.00
2013-10-2,82,71,64,73,68,63,97,92,74,30.13,30.04,3,0,9,0.35
2013-10-3,84,74,68,71,68,65,97,82,56,30.09,29.99,4,1,11,0.02
2013-10-4,84,74,67,73,69,65,95,86,68,30.09,30.01,3,0,8,0.06
2013-10-5,81,73,68,74,70,66,97,90,75,30.06,29.88,5,0,15,1.13
2013-10-6,69,61,49,67,55,45,97,83,55,29.99,29.84,7,1,18,2.41
2013-10-7,66,54,44,52,47,43,96,80,54,30.19,29.96,7,1,14,0.01
2013-10-8,70,57,47,52,48,45,94,75,43,30.25,30.15,7,2,15,0.01
2013-10-9,78,62,50,64,56,47,94,80,57,30.22,30.13,2,0,8,0.01
2013-10-10,77,66,56,66,61,55,96,84,61,30.19,30.06,2,0,8,0.00
2013-10-11,81,66,55,63,58,53,95,79,50,30.11,30.01,5,0,10,0.00
2013-10-12,76,65,54,66,59,-100,96,84,70,30.16,30.04,3,0,7,0.01
2013-10-13,77,66,54,65,55,46,93,70,40,30.32,30.16,5,1,11,0.01
2013-10-14,72,61,52,61,53,45,88,75,66,30.31,30.14,4,1,9,0.00
2013-10-15,71,66,61,66,62,57,95,90,79,30.14,29.98,4,1,11,0.15
2013-10-16,66,59,48,65,54,46,95,83,67,30.05,29.96,5,1,17,0.03
2013-10-17,63,53,45,52,48,43,95,83,59,30.05,29.99,6,1,12,0.14
2013-10-18,69,53,41,53,46,40,97,80,47,30.11,29.99,3,0,10,0.01
2013-10-19,56,49,39,52,43,-100,93,82,55,30.10,29.93,6,2,14,0.12
2013-10-20,64,49,36,48,42,34,96,78,49,30.14,30.04,5,1,12,0.02
2013-10-21,68,53,39,53,46,37,95,79,53,30.09,29.99,4,1,12,0.02
2013-10-22,60,50,36,47,40,34,94,71,43,30.11,29.89,6,1,14,0.01
2013-10-23,52,45,41,44,36,33,87,71,49,30.17,29.93,9,3,20,0.01
2013-10-24,49,42,32,40,35,27,93,75,44,30.43,30.16,8,2,17,0.00
2013-10-25,51,42,26,32,29,24,92,63,39,30.58,30.36,4,1,10,0.00
2013-10-26,57,43,29,44,34,-100,94,77,54,30.37,30.10,4,0,13,0.01
2013-10-27,66,50,34,47,40,32,94,72,39,30.17,30.08,2,0,8,0.01
2013-10-28,72,57,49,52,46,-100,90,70,50,30.29,30.10,3,0,7,0.00
2013-10-29,63,56,46,59,53,44,97,92,84,30.32,30.15,2,0,8,0.28
2013-10-30,77,67,60,66,62,59,96,85,67,30.18,30.01,5,1,12,0.30
2013-10-31,70,66,58,66,62,56,95,87,78,30.02,29.50,9,4,26,0.64